Regional Weather Roundup
Issued by NWS

Home | Current Version | Previous Version | Text Only | Print | Product List | Glossary Off
Versions: 1 2 3 4 5 6 7 8 9 10 11 12 13 14 15 16 17 18 19 20 21 22 23 24 25 26 27 28 29 30 31 32 33 34 35 36 37 38 39 40 41 42 43 44 45 46 47 48 49 50

332
ASUS44 KMEG 191010
RWRTN
TENNESSEE HOURLY STATE WEATHER ROUNDUP
NATIONAL WEATHER SERVICE MEMPHIS TN
500 AM CDT TUE SEP 19 2017

TNZ002-004-019-021-049-052-054-088>092-191100-
WEST TENNESSEE

CITY           SKY/WX    TMP DP  RH WIND       PRES   REMARKS
MEMPHIS INTL   CLEAR     72  70  93 SW3       29.95R
NWS MEMPHIS      N/A     70 N/A N/A MISG        N/A
JACKSON        CLEAR     70  70 100 S6        29.95S
DYERSBURG      CLEAR     70  70 100 CALM      29.94S FOG
SOMERVILLE     CLEAR     68  68 100 CALM      29.94S
COVINGTON      FOG       66  66 100 S3        29.94S VSB 1/2
UNION CITY     FOG       68  68 100 CALM      29.92S VSB 1/2
BOLIVAR        CLOUDY    70  68  94 SE3       29.95S
PARIS          CLEAR     68  68 100 CALM      29.93R
HUNTINGDON     CLEAR     70  70 100 CALM      29.93R
LEXINGTON      FOG       66  66 100 CALM      29.95S VSB 1/2
SELMER         MOCLDY    70  68  94 CALM      29.95S
SAVANNAH       CLEAR     68  66  94 CALM      29.95S
$$

TNZ008-025-027-028-033-062-065-066-191100-
NORTH MIDDLE TENNESSEE

CITY           SKY/WX    TMP DP  RH WIND       PRES   REMARKS
NASHVILLE      PTCLDY    68  66  93 S3        29.97S
PORTLAND       PTCLDY    66  64  94 S5        29.96S
CLARKSVILLE    CLOUDY    70  67  90 S3        29.94S
SMYRNA           N/A    N/A N/A N/A MISG        N/A
COOKEVILLE     CLEAR     61  59  94 CALM      29.99S FOG
GALLATIN       CLEAR     66  64  94 CALM      29.99R
CROSSVILLE     CLEAR     59  58  96 CALM      30.05R
$$

TNZ061-075-076-078-094-096-097-191100-
SOUTH MIDDLE TENNESSEE

CITY           SKY/WX    TMP DP  RH WIND       PRES   REMARKS
TULLAHOMA      CLEAR     63  61  94 CALM      30.01S
WINCHESTER     CLEAR     64  63  94 CALM      30.01S
MCMINNVILLE    MOCLDY    63  63 100 CALM      30.00F VSB 1/2
COLUMBIA       CLEAR     66 N/A N/A CALM      29.95S
SHELBYVILLE    CLEAR     64  64 100 CALM      29.98S
$$

TNZ017-018-042-046-047-191100-
NORTHEAST TENNESSEE

CITY           SKY/WX    TMP DP  RH WIND       PRES   REMARKS
TRI CITIES     PTCLDY    56  56 100 CALM      30.05R FOG
ELIZABETHTON   CLEAR     59  57  94 CALM      30.06R
$$

TNZ012-013-036-069-073-074-191100-
CENTRAL EAST TENNESSEE

CITY           SKY/WX    TMP DP  RH WIND       PRES   REMARKS
KNOXVILLE      CLEAR     64  61  90 CALM      30.00S
OAK RIDGE      FOG       64  62  93 CALM      30.02S VSB 1/2
DOWNTOWN KNOXV PTCLDY    63  63 100 CALM      30.00S FOG
GATLINBURG     CLEAR     57  57 100 CALM      30.01S
MORRISTOWN     CLEAR     63  61  94 CALM      30.01S
JACKSBORO      FOG       61  61 100 CALM      30.05S VSB 0
$$

TNZ083-085-099-191100-
SOUTHEAST TENNESSEE

CITY           SKY/WX    TMP DP  RH WIND       PRES   REMARKS
CHATTANOOGA    CLEAR     65  62  90 CALM      30.00R
DAYTON         PTSUNNY   63  63 100 CALM      30.00R FOG
$$

SKY/WX REPORTED AS FAIR MEANS FEW OR NO CLOUDS BELOW
12 THOUSAND FEET.





USA.gov is the U.S. government's official web portal to all federal, state and local government web resources and services.